| time (UTC) | temp F | wind direction | speed MPH | gust MPH | rain 1hr in | rain 24hr in | rain mn in | humidity % | barometer mb |
| 20260903123311 | 75 | 129 | 0.0 | 0.0 | 0.00 | 0.00 | 0.00 | 97 | 1019.6 |
| 20260903122810 | 74 | 102 | 0.0 | 0.0 | 0.00 | 0.00 | 0.00 | 98 | 1019.6 |
| 20260903122306 | 74 | 69 | 0.0 | 0.0 | 0.00 | 0.00 | 0.00 | 99 | 1019.4 |
| 20260903121803 | 74 | 82 | 0.0 | 0.0 | 0.00 | 0.00 | 0.00 | 99 | 1019.5 |
| 20260903121259 | 73 | 96 | 0.0 | 0.0 | 0.00 | 0.00 | 0.00 | 99 | 1019.8 |
| 20260903120755 | 73 | 108 | 0.0 | 0.0 | 0.00 | 0.00 | 0.00 | 99 | 1019.8 |
| 20260903120254 | 73 | 81 | 0.0 | 0.0 | 0.00 | 0.00 | 0.00 | 99 | 1019.4 |
| 20260903115752 | 73 | 81 | 0.0 | 0.0 | 0.00 | 0.00 | 0.00 | 99 | 1019.3 |
| 20260903115248 | 73 | 85 | 0.0 | 0.0 | 0.00 | 0.00 | 0.00 | 99 | 1019.3 |
| 20260903114748 | 72 | 85 | 0.0 | 0.0 | 0.00 | 0.00 | 0.00 | 99 | 1019.2 |
| 20260903114244 | 72 | 99 | 0.0 | 0.0 | 0.00 | 0.00 | 0.00 | 99 | 1019.3 |
| 20260903113739 | 72 | 99 | 0.0 | 0.0 | 0.00 | 0.00 | 0.00 | 99 | 1019.1 |
| 20260903113235 | 72 | 99 | 0.0 | 0.0 | 0.00 | 0.00 | 0.00 | 99 | 1019.3 |
| 20260903112730 | 72 | 99 | 0.0 | 0.0 | 0.00 | 0.00 | 0.00 | 99 | 1019.2 |
| 20260903112226 | 72 | 99 | 0.0 | 0.0 | 0.00 | 0.00 | 0.00 | 99 | 1018.9 |
| 20260903111724 | 72 | 98 | 0.0 | 0.0 | 0.00 | 0.00 | 0.00 | 99 | 1019.3 |
| 20260903111220 | 72 | 98 | 0.0 | 0.0 | 0.00 | 0.00 | 0.00 | 99 | 1019.1 |
| 20260903110716 | 72 | 98 | 0.0 | 0.0 | 0.00 | 0.00 | 0.00 | 99 | 1019.1 |
| 20260903110212 | 72 | 98 | 0.0 | 0.0 | 0.00 | 0.00 | 0.00 | 99 | 1018.9 |
| 20260903105711 | 72 | 98 | 0.0 | 0.0 | 0.00 | 0.00 | 0.00 | 99 | 1018.9 |
| 20260903105206 | 72 | 98 | 0.0 | 0.0 | 0.00 | 0.00 | 0.00 | 99 | 1018.8 |
| 20260903104706 | 72 | 95 | 0.0 | 0.0 | 0.00 | 0.00 | 0.00 | 99 | 1018.6 |
| 20260903104201 | 72 | 96 | 0.0 | 0.0 | 0.00 | 0.00 | 0.00 | 99 | 1018.8 |
| 20260903103657 | 72 | 94 | 0.0 | 0.0 | 0.00 | 0.00 | 0.00 | 99 | 1018.8 |
| 20260903103153 | 72 | 94 | 0.0 | 0.0 | 0.00 | 0.00 | 0.00 | 99 | 1018.8 |
| 20260903102648 | 73 | 94 | 0.0 | 0.0 | 0.00 | 0.00 | 0.00 | 99 | 1018.9 |
| 20260903102148 | 73 | 93 | 0.0 | 0.0 | 0.00 | 0.00 | 0.00 | 99 | 1018.8 |
| 20260903101647 | 73 | 89 | 0.0 | 0.0 | 0.00 | 0.00 | 0.00 | 99 | 1018.6 |
| 20260903101142 | 73 | 96 | 0.0 | 0.0 | 0.00 | 0.00 | 0.00 | 99 | 1018.5 |
| 20260903100637 | 73 | 79 | 0.0 | 0.0 | 0.00 | 0.00 | 0.00 | 99 | 1018.2 |
| 20260903100137 | 73 | 70 | 0.0 | 0.0 | 0.00 | 0.00 | 0.00 | 99 | 1018.6 |
| 20260903095634 | 73 | 70 | 0.0 | 0.0 | 0.00 | 0.00 | 0.00 | 99 | 1018.5 |
| 20260903095134 | 73 | 70 | 0.0 | 0.0 | 0.00 | 0.00 | 0.00 | 99 | 1018.3 |
| 20260903094629 | 74 | 78 | 0.0 | 0.0 | 0.00 | 0.00 | 0.00 | 99 | 1018.4 |
| 20260903094125 | 74 | 78 | 0.0 | 0.0 | 0.00 | 0.00 | 0.00 | 99 | 1018.3 |
| 20260903093620 | 74 | 80 | 0.0 | 0.0 | 0.00 | 0.00 | 0.00 | 99 | 1018.4 |
| 20260903093115 | 74 | 80 | 0.0 | 0.0 | 0.00 | 0.00 | 0.00 | 99 | 1018.5 |
| 20260903092615 | 74 | 80 | 0.0 | 0.0 | 0.00 | 0.00 | 0.00 | 99 | 1018.6 |
| 20260903092110 | 74 | 75 | 0.0 | 0.0 | 0.00 | 0.00 | 0.00 | 99 | 1018.5 |
| 20260903091608 | 74 | 87 | 0.0 | 0.0 | 0.00 | 0.00 | 0.00 | 99 | 1018.5 |
| 20260903091102 | 74 | 75 | 0.0 | 0.0 | 0.00 | 0.00 | 0.00 | 99 | 1018.3 |
| 20260903090559 | 74 | 75 | 0.0 | 0.0 | 0.00 | 0.00 | 0.00 | 99 | 1018.4 |
| 20260903090057 | 74 | 74 | 0.0 | 0.0 | 0.00 | 0.00 | 0.00 | 99 | 1018.4 |
| 20260903085555 | 74 | 78 | 0.0 | 0.0 | 0.00 | 0.00 | 0.00 | 99 | 1018.6 |
| 20260903085052 | 74 | 81 | 0.0 | 0.0 | 0.00 | 0.00 | 0.00 | 99 | 1018.8 |
| 20260903084549 | 74 | 68 | 0.0 | 0.0 | 0.00 | 0.00 | 0.00 | 99 | 1018.2 |
| 20260903084044 | 74 | 70 | 0.0 | 0.0 | 0.00 | 0.00 | 0.00 | 99 | 1018.6 |
| 20260903083540 | 74 | 69 | 0.0 | 0.0 | 0.00 | 0.00 | 0.00 | 99 | 1018.8 |
| 20260903083040 | 74 | 69 | 0.0 | 0.0 | 0.00 | 0.00 | 0.00 | 99 | 1018.5 |
| 20260903082534 | 74 | 69 | 0.0 | 0.0 | 0.00 | 0.00 | 0.00 | 99 | 1018.3 |
| 20260903082030 | 74 | 69 | 0.0 | 0.0 | 0.00 | 0.00 | 0.00 | 98 | 1018.6 |
| 20260903081525 | 74 | 70 | 0.0 | 0.0 | 0.00 | 0.00 | 0.00 | 98 | 1018.6 |
| 20260903081021 | 74 | 75 | 0.0 | 0.0 | 0.00 | 0.00 | 0.00 | 98 | 1018.6 |
| 20260903080517 | 74 | 82 | 0.0 | 0.0 | 0.00 | 0.00 | 0.00 | 98 | 1018.6 |
| 20260903080013 | 74 | 64 | 0.0 | 0.0 | 0.00 | 0.00 | 0.00 | 98 | 1018.3 |
| 20260903075508 | 74 | 70 | 0.0 | 0.0 | 0.00 | 0.00 | 0.00 | 97 | 1018.4 |
| 20260903075003 | 74 | 59 | 0.0 | 0.0 | 0.00 | 0.00 | 0.00 | 97 | 1018.2 |
| 20260903074502 | 74 | 70 | 0.0 | 0.0 | 0.00 | 0.00 | 0.00 | 97 | 1018.2 |
| 20260903073957 | 74 | 33 | 1.0 | 1.0 | 0.00 | 0.00 | 0.00 | 97 | 1018.2 |
| 20260903073452 | 75 | 80 | 0.0 | 0.0 | 0.00 | 0.00 | 0.00 | 97 | 1018.2 |
| 20260903072948 | 75 | 81 | 0.0 | 0.0 | 0.00 | 0.00 | 0.00 | 97 | 1018.5 |
| 20260903072444 | 75 | 79 | 0.0 | 0.0 | 0.00 | 0.00 | 0.00 | 96 | 1018.2 |
| 20260903071941 | 75 | 86 | 0.0 | 0.0 | 0.00 | 0.00 | 0.00 | 96 | 1018.3 |
| 20260903071436 | 75 | 74 | 0.0 | 0.0 | 0.00 | 0.00 | 0.00 | 96 | 1018.0 |
| 20260903070932 | 75 | 74 | 0.0 | 0.0 | 0.00 | 0.00 | 0.00 | 96 | 1018.4 |
| 20260903070432 | 75 | 73 | 0.0 | 0.0 | 0.00 | 0.00 | 0.00 | 96 | 1018.1 |
| 20260903065927 | 75 | 90 | 0.0 | 0.0 | 0.00 | 0.00 | 0.00 | 95 | 1018.3 |
| 20260903065426 | 75 | 90 | 0.0 | 0.0 | 0.00 | 0.00 | 0.00 | 95 | 1018.1 |
| 20260903064926 | 75 | 90 | 0.0 | 0.0 | 0.00 | 0.00 | 0.00 | 95 | 1018.3 |
| 20260903064421 | 75 | 90 | 0.0 | 0.0 | 0.00 | 0.00 | 0.00 | 95 | 1018.2 |
| 20260903063917 | 75 | 90 | 0.0 | 0.0 | 0.00 | 0.00 | 0.00 | 94 | 1018.2 |
| 20260903063412 | 75 | 90 | 0.0 | 0.0 | 0.00 | 0.00 | 0.00 | 94 | 1018.4 |
| 20260903062908 | 75 | 94 | 0.0 | 0.0 | 0.00 | 0.00 | 0.00 | 94 | 1018.2 |
| 20260903062408 | 75 | 93 | 0.0 | 0.0 | 0.00 | 0.00 | 0.00 | 94 | 1018.4 |
| 20260903061904 | 75 | 93 | 0.0 | 0.0 | 0.00 | 0.00 | 0.00 | 94 | 1018.3 |
| 20260903061403 | 76 | 93 | 0.0 | 0.0 | 0.00 | 0.00 | 0.00 | 93 | 1018.5 |
| 20260903060859 | 76 | 93 | 0.0 | 0.0 | 0.00 | 0.00 | 0.00 | 93 | 1018.4 |
| 20260903060358 | 76 | 94 | 0.0 | 0.0 | 0.00 | 0.00 | 0.00 | 93 | 1018.3 |
| 20260903055856 | 76 | 103 | 0.0 | 0.0 | 0.00 | 0.00 | 0.00 | 93 | 1018.5 |
| 20260903055354 | 76 | 103 | 0.0 | 0.0 | 0.00 | 0.00 | 0.00 | 93 | 1018.4 |
| 20260903054850 | 76 | 103 | 0.0 | 0.0 | 0.00 | 0.00 | 0.00 | 92 | 1018.4 |
| 20260903054349 | 76 | 103 | 0.0 | 0.0 | 0.00 | 0.00 | 0.00 | 92 | 1018.5 |
| 20260903053846 | 76 | 103 | 0.0 | 0.0 | 0.00 | 0.00 | 0.00 | 91 | 1018.5 |
| 20260903053341 | 76 | 103 | 0.0 | 0.0 | 0.00 | 0.00 | 0.00 | 91 | 1018.5 |
| 20260903052837 | 76 | 103 | 0.0 | 0.0 | 0.00 | 0.00 | 0.00 | 91 | 1018.6 |
| 20260903052332 | 76 | 103 | 0.0 | 0.0 | 0.00 | 0.00 | 0.00 | 90 | 1018.9 |
| 20260903051828 | 77 | 104 | 0.0 | 0.0 | 0.00 | 0.00 | 0.00 | 90 | 1018.6 |
| 20260903051323 | 77 | 104 | 0.0 | 0.0 | 0.00 | 0.00 | 0.00 | 89 | 1018.6 |
| 20260903050819 | 77 | 101 | 0.0 | 0.0 | 0.00 | 0.00 | 0.00 | 89 | 1018.5 |
| 20260903050318 | 77 | 90 | 0.0 | 0.0 | 0.00 | 0.00 | 0.00 | 88 | 1018.6 |
| 20260903045813 | 77 | 90 | 0.0 | 0.0 | 0.00 | 0.00 | 0.00 | 88 | 1018.8 |
| 20260903045308 | 78 | 89 | 0.0 | 0.0 | 0.00 | 0.00 | 0.00 | 87 | 1018.9 |
| 20260903044804 | 78 | 103 | 0.0 | 0.0 | 0.00 | 0.00 | 0.00 | 87 | 1018.9 |
| 20260903044300 | 78 | 71 | 0.0 | 0.0 | 0.00 | 0.00 | 0.00 | 87 | 1018.6 |
| 20260903043756 | 78 | 61 | 0.0 | 0.0 | 0.00 | 0.00 | 0.00 | 86 | 1018.8 |
| 20260903043256 | 78 | 69 | 0.0 | 0.0 | 0.00 | 0.00 | 0.00 | 86 | 1018.6 |
| 20260903042755 | 78 | 94 | 0.0 | 0.0 | 0.00 | 0.00 | 0.00 | 85 | 1018.8 |
| 20260903042251 | 78 | 94 | 0.0 | 0.0 | 0.00 | 0.00 | 0.00 | 85 | 1019.0 |
| 20260903041746 | 78 | 94 | 0.0 | 0.0 | 0.00 | 0.00 | 0.00 | 84 | 1018.8 |
| 20260903041243 | 78 | 94 | 0.0 | 0.0 | 0.00 | 0.00 | 0.00 | 83 | 1019.0 |
| 20260903040737 | 79 | 94 | 0.0 | 0.0 | 0.00 | 0.00 | 0.00 | 83 | 1018.9 |
| 20260903040237 | 79 | 93 | 0.0 | 0.0 | 0.00 | 0.00 | 0.00 | 83 | 1018.8 |
| 20260903035733 | 79 | 71 | 0.0 | 0.0 | 0.00 | 0.00 | 0.00 | 83 | 1018.5 |
| 20260903035229 | 79 | 70 | 0.0 | 0.0 | 0.00 | 0.00 | 0.00 | 82 | 1018.5 |
| 20260903034729 | 79 | 70 | 0.0 | 0.0 | 0.00 | 0.00 | 0.00 | 81 | 1018.8 |
| 20260903034224 | 79 | 75 | 0.0 | 0.0 | 0.00 | 0.00 | 0.00 | 81 | 1018.5 |
| 20260903033719 | 79 | 74 | 0.0 | 0.0 | 0.00 | 0.00 | 0.00 | 82 | 1018.9 |
| 20260903033220 | 79 | 76 | 0.0 | 0.0 | 0.00 | 0.00 | 0.00 | 82 | 1018.8 |
| 20260903032714 | 80 | 69 | 0.0 | 0.0 | 0.00 | 0.00 | 0.00 | 82 | 1018.8 |
| 20260903032210 | 80 | 70 | 0.0 | 0.0 | 0.00 | 0.00 | 0.00 | 80 | 1018.6 |
| 20260903031706 | 80 | 69 | 0.0 | 0.0 | 0.00 | 0.00 | 0.00 | 80 | 1018.6 |
| 20260903031205 | 81 | 69 | 0.0 | 0.0 | 0.00 | 0.00 | 0.00 | 78 | 1019.0 |
| 20260903030701 | 81 | 69 | 0.0 | 0.0 | 0.00 | 0.00 | 0.00 | 76 | 1018.9 |
| 20260903030157 | 81 | 70 | 0.0 | 0.0 | 0.00 | 0.00 | 0.00 | 76 | 1018.8 |
| 20260903025652 | 81 | 70 | 0.0 | 0.0 | 0.00 | 0.00 | 0.00 | 76 | 1019.0 |
| 20260903025148 | 81 | 48 | 1.0 | 1.0 | 0.00 | 0.00 | 0.00 | 76 | 1018.8 |
| 20260903024642 | 82 | 74 | 0.0 | 0.0 | 0.00 | 0.00 | 0.00 | 76 | 1018.5 |
| 20260903024141 | 82 | 40 | 0.0 | 1.0 | 0.00 | 0.00 | 0.00 | 76 | 1019.1 |
| 20260903023638 | 82 | 44 | 1.0 | 1.0 | 0.00 | 0.00 | 0.00 | 76 | 1018.8 |
| 20260903023137 | 82 | 71 | 0.0 | 0.0 | 0.00 | 0.00 | 0.00 | 76 | 1018.9 |
| 20260903022632 | 82 | 83 | 0.0 | 0.0 | 0.00 | 0.00 | 0.00 | 75 | 1018.8 |
| 20260903022131 | 82 | 83 | 0.0 | 0.0 | 0.00 | 0.00 | 0.00 | 75 | 1018.6 |
| 20260903021626 | 83 | 100 | 0.0 | 0.0 | 0.00 | 0.00 | 0.00 | 75 | 1018.8 |
| 20260903021126 | 83 | 99 | 0.0 | 0.0 | 0.00 | 0.00 | 0.00 | 74 | 1018.8 |
| 20260903020622 | 83 | 71 | 0.0 | 0.0 | 0.00 | 0.00 | 0.00 | 74 | 1018.5 |
| 20260903020121 | 83 | 62 | 0.0 | 0.0 | 0.00 | 0.00 | 0.00 | 74 | 1018.5 |
| 20260903015617 | 83 | 98 | 0.0 | 0.0 | 0.00 | 0.00 | 0.00 | 74 | 1018.5 |
| 20260903015113 | 83 | 60 | 0.0 | 0.0 | 0.00 | 0.00 | 0.00 | 74 | 1018.5 |
| 20260903014612 | 83 | 62 | 0.0 | 0.0 | 0.00 | 0.00 | 0.00 | 74 | 1018.5 |
| 20260903014113 | 83 | 84 | 0.0 | 0.0 | 0.00 | 0.00 | 0.00 | 73 | 1018.4 |
| 20260903013613 | 84 | 49 | 1.0 | 1.0 | 0.00 | 0.00 | 0.00 | 73 | 1018.3 |
| 20260903013107 | 84 | 102 | 0.0 | 0.0 | 0.00 | 0.00 | 0.00 | 72 | 1018.0 |
| 20260903012606 | 84 | 103 | 0.0 | 0.0 | 0.00 | 0.00 | 0.00 | 72 | 1018.1 |
| 20260903012106 | 84 | 88 | 0.0 | 0.0 | 0.00 | 0.00 | 0.00 | 72 | 1018.1 |
| 20260903011605 | 84 | 92 | 0.0 | 0.0 | 0.00 | 0.00 | 0.00 | 72 | 1017.9 |
| 20260903011105 | 85 | 98 | 0.0 | 0.0 | 0.00 | 0.00 | 0.00 | 71 | 1017.6 |
| 20260903010601 | 85 | 96 | 0.0 | 0.0 | 0.00 | 0.00 | 0.00 | 70 | 1017.6 |
| 20260903010059 | 86 | 98 | 0.0 | 0.0 | 0.00 | 0.00 | 0.00 | 69 | 1017.6 |
| 20260903005554 | 86 | 59 | 0.0 | 0.0 | 0.00 | 0.00 | 0.00 | 69 | 1017.5 |
| 20260903005049 | 86 | 58 | 0.0 | 0.0 | 0.00 | 0.00 | 0.00 | 68 | 1017.5 |
| 20260903004544 | 86 | 69 | 1.0 | 1.0 | 0.00 | 0.00 | 0.00 | 67 | 1017.5 |
| 20260903004040 | 86 | 60 | 0.0 | 1.0 | 0.00 | 0.00 | 0.00 | 68 | 1017.5 |
| 20260903003535 | 87 | 17 | 1.0 | 1.0 | 0.00 | 0.00 | 0.00 | 67 | 1017.5 |
| 20260903003030 | 86 | 358 | 1.0 | 2.0 | 0.00 | 0.00 | 0.00 | 66 | 1017.5 |
| 20260903002525 | 86 | 51 | 0.0 | 1.0 | 0.00 | 0.00 | 0.00 | 67 | 1017.6 |
| 20260903002019 | 86 | 33 | 2.0 | 2.0 | 0.00 | 0.00 | 0.00 | 68 | 1017.6 |
| 20260903001514 | 86 | 52 | 0.0 | 0.0 | 0.00 | 0.00 | 0.00 | 67 | 1017.4 |
| 20260903001013 | 86 | 74 | 0.0 | 0.0 | 0.00 | 0.00 | 0.00 | 68 | 1017.3 |
| 20260903000509 | 86 | 25 | 1.0 | 1.0 | 0.00 | 0.00 | 0.00 | 68 | 1017.4 |
| 20260903000008 | 87 | 14 | 2.0 | 2.0 | 0.00 | 0.00 | 0.00 | 65 | 1017.2 |
| 20260902235502 | 87 | 68 | 0.0 | 0.0 | 0.00 | 0.00 | 0.00 | 66 | 1017.1 |
| 20260902234957 | 88 | 73 | 0.0 | 0.0 | 0.00 | 0.00 | 0.00 | 64 | 1017.2 |
| 20260902234451 | 88 | 57 | 0.0 | 0.0 | 0.00 | 0.00 | 0.00 | 62 | 1017.2 |
| 20260902233950 | 89 | 61 | 0.0 | 1.0 | 0.00 | 0.00 | 0.00 | 63 | 1017.2 |
| 20260902233449 | 89 | 82 | 0.0 | 0.0 | 0.00 | 0.00 | 0.00 | 61 | 1017.2 |
| 20260902232944 | 89 | 75 | 0.0 | 0.0 | 0.00 | 0.00 | 0.00 | 60 | 1017.3 |
| 20260902232439 | 90 | 53 | 0.0 | 1.0 | 0.00 | 0.00 | 0.00 | 60 | 1017.4 |
| 20260902231939 | 90 | 98 | 0.0 | 0.0 | 0.00 | 0.00 | 0.00 | 60 | 1017.5 |
| 20260902231434 | 91 | 55 | 0.0 | 0.0 | 0.00 | 0.00 | 0.00 | 59 | 1017.6 |
| 20260902230934 | 91 | 37 | 0.0 | 1.0 | 0.00 | 0.00 | 0.00 | 57 | 1017.2 |
| 20260902230428 | 91 | 41 | 1.0 | 1.0 | 0.00 | 0.00 | 0.00 | 57 | 1017.4 |
| 20260902225927 | 91 | 50 | 1.0 | 1.0 | 0.00 | 0.00 | 0.00 | 57 | 1017.4 |
| 20260902225423 | 91 | 91 | 0.0 | 1.0 | 0.00 | 0.00 | 0.00 | 60 | 1017.3 |
| 20260902224922 | 92 | 29 | 1.0 | 2.0 | 0.00 | 0.00 | 0.00 | 59 | 1017.3 |
| 20260902224421 | 92 | 51 | 0.0 | 1.0 | 0.00 | 0.00 | 0.00 | 59 | 1017.6 |
| 20260902223919 | 92 | 53 | 1.0 | 1.0 | 0.00 | 0.00 | 0.00 | 58 | 1017.5 |
| 20260902223419 | 92 | 75 | 0.0 | 0.0 | 0.00 | 0.00 | 0.00 | 59 | 1017.5 |
| 20260902222918 | 92 | 90 | 0.0 | 0.0 | 0.00 | 0.00 | 0.00 | 58 | 1017.5 |
| 20260902222417 | 92 | 97 | 0.0 | 0.0 | 0.00 | 0.00 | 0.00 | 59 | 1017.5 |
| 20260902221917 | 92 | 74 | 0.0 | 0.0 | 0.00 | 0.00 | 0.00 | 58 | 1017.4 |
| 20260902221416 | 92 | 147 | 1.0 | 1.0 | 0.00 | 0.00 | 0.00 | 58 | 1017.5 |
| 20260902220912 | 93 | 92 | 0.0 | 0.0 | 0.00 | 0.00 | 0.00 | 57 | 1017.6 |
| 20260902220411 | 93 | 60 | 1.0 | 1.0 | 0.00 | 0.00 | 0.00 | 58 | 1017.9 |
| 20260902215906 | 93 | 150 | 0.0 | 1.0 | 0.00 | 0.00 | 0.00 | 56 | 1017.5 |
| 20260902215402 | 93 | 46 | 1.0 | 1.0 | 0.00 | 0.00 | 0.00 | 55 | 1017.5 |
| 20260902214858 | 93 | 14 | 1.0 | 1.0 | 0.00 | 0.00 | 0.00 | 54 | 1017.7 |
| 20260902214357 | 94 | 224 | 0.0 | 0.0 | 0.00 | 0.00 | 0.00 | 53 | 1017.8 |
| 20260902213851 | 93 | 93 | 0.0 | 0.0 | 0.00 | 0.00 | 0.00 | 53 | 1017.5 |
| 20260902213348 | 93 | 63 | 0.0 | 0.0 | 0.00 | 0.00 | 0.00 | 53 | 1017.6 |
| 20260902212846 | 93 | 349 | 1.0 | 1.0 | 0.00 | 0.00 | 0.00 | 53 | 1017.3 |
| 20260902212343 | 93 | 146 | 0.0 | 1.0 | 0.00 | 0.00 | 0.00 | 53 | 1017.3 |
| 20260902211839 | 93 | 314 | 0.0 | 0.0 | 0.00 | 0.00 | 0.00 | 54 | 1017.7 |
| 20260902211334 | 93 | 113 | 0.0 | 0.0 | 0.00 | 0.00 | 0.00 | 53 | 1017.5 |
| 20260902210829 | 93 | 7 | 1.0 | 1.0 | 0.00 | 0.00 | 0.00 | 53 | 1017.9 |
| 20260902210329 | 93 | 248 | 1.0 | 1.0 | 0.00 | 0.00 | 0.00 | 54 | 1017.7 |
| 20260902205827 | 93 | 93 | 2.0 | 2.0 | 0.00 | 0.00 | 0.00 | 53 | 1017.8 |
| 20260902205322 | 93 | 57 | 0.0 | 0.0 | 0.00 | 0.00 | 0.00 | 54 | 1017.7 |
| 20260902204818 | 93 | 46 | 3.0 | 3.0 | 0.00 | 0.00 | 0.00 | 53 | 1017.8 |
| 20260902204312 | 93 | 36 | 1.0 | 2.0 | 0.00 | 0.00 | 0.00 | 54 | 1017.8 |
| 20260902203808 | 94 | 10 | 2.0 | 3.0 | 0.00 | 0.00 | 0.00 | 53 | 1017.8 |
| 20260902203302 | 94 | 283 | 1.0 | 1.0 | 0.00 | 0.00 | 0.00 | 54 | 1017.7 |
| 20260902202757 | 94 | 62 | 0.0 | 1.0 | 0.00 | 0.00 | 0.00 | 54 | 1017.8 |
| 20260902202254 | 94 | 84 | 0.0 | 0.0 | 0.00 | 0.00 | 0.00 | 53 | 1017.7 |
| 20260902201750 | 93 | 156 | 2.0 | 2.0 | 0.00 | 0.00 | 0.00 | 54 | 1017.9 |
| 20260902201249 | 93 | 75 | 1.0 | 1.0 | 0.00 | 0.00 | 0.00 | 52 | 1018.0 |
| 20260902200744 | 93 | 272 | 1.0 | 1.0 | 0.00 | 0.00 | 0.00 | 54 | 1018.0 |
| 20260902200240 | 93 | 125 | 2.0 | 2.0 | 0.00 | 0.00 | 0.00 | 53 | 1018.0 |
| 20260902195735 | 93 | 70 | 3.0 | 3.0 | 0.00 | 0.00 | 0.00 | 52 | 1018.3 |
| 20260902195234 | 93 | 261 | 0.0 | 1.0 | 0.00 | 0.00 | 0.00 | 54 | 1018.2 |
| 20260902194734 | 93 | 75 | 0.0 | 0.0 | 0.00 | 0.00 | 0.00 | 54 | 1018.1 |
| 20260902194229 | 94 | 135 | 2.0 | 2.0 | 0.00 | 0.00 | 0.00 | 54 | 1018.3 |
| 20260902193725 | 94 | 294 | 0.0 | 0.0 | 0.00 | 0.00 | 0.00 | 52 | 1018.4 |
| 20260902193220 | 93 | 46 | 0.0 | 1.0 | 0.00 | 0.00 | 0.00 | 51 | 1018.5 |
| 20260902192719 | 93 | 284 | 1.0 | 1.0 | 0.00 | 0.00 | 0.00 | 52 | 1018.8 |
| 20260902192218 | 93 | 281 | 1.0 | 1.0 | 0.00 | 0.00 | 0.00 | 53 | 1018.4 |
| 20260902191718 | 93 | 304 | 1.0 | 1.0 | 0.00 | 0.00 | 0.00 | 54 | 1018.8 |
| 20260902191213 | 94 | 123 | 1.0 | 1.0 | 0.00 | 0.00 | 0.00 | 55 | 1018.8 |
| 20260902190709 | 94 | 115 | 1.0 | 1.0 | 0.00 | 0.00 | 0.00 | 54 | 1018.9 |
| 20260902190208 | 94 | 294 | 1.0 | 1.0 | 0.00 | 0.00 | 0.00 | 56 | 1018.9 |
| 20260902185704 | 94 | 105 | 0.0 | 0.0 | 0.00 | 0.00 | 0.00 | 55 | 1019.0 |
| 20260902185201 | 94 | 330 | 3.0 | 5.0 | 0.00 | 0.00 | 0.00 | 55 | 1019.0 |
| 20260902184655 | 94 | 61 | 2.0 | 2.0 | 0.00 | 0.00 | 0.00 | 56 | 1019.1 |
| 20260902184151 | 94 | 244 | 1.0 | 1.0 | 0.00 | 0.00 | 0.00 | 54 | 1019.2 |
| 20260902183646 | 93 | 283 | 0.0 | 0.0 | 0.00 | 0.00 | 0.00 | 57 | 1019.1 |
| 20260902183143 | 92 | 31 | 1.0 | 1.0 | 0.00 | 0.00 | 0.00 | 58 | 1019.3 |
| 20260902182639 | 91 | 340 | 0.0 | 0.0 | 0.00 | 0.00 | 0.00 | 61 | 1019.5 |
| 20260902182135 | 93 | 287 | 1.0 | 1.0 | 0.00 | 0.00 | 0.00 | 60 | 1019.5 |
| 20260902181631 | 92 | 63 | 0.0 | 0.0 | 0.00 | 0.00 | 0.00 | 59 | 1019.5 |
| 20260902181130 | 93 | 44 | 0.0 | 0.0 | 0.00 | 0.00 | 0.00 | 58 | 1019.4 |
| 20260902180630 | 94 | 52 | 2.0 | 2.0 | 0.00 | 0.00 | 0.00 | 57 | 1019.2 |
| 20260902180126 | 94 | 76 | 1.0 | 1.0 | 0.00 | 0.00 | 0.00 | 56 | 1019.5 |
| 20260902175626 | 93 | 325 | 0.0 | 0.0 | 0.00 | 0.00 | 0.00 | 56 | 1019.6 |
| 20260902175121 | 94 | 306 | 0.0 | 0.0 | 0.00 | 0.00 | 0.00 | 55 | 1019.6 |
| 20260902174618 | 93 | 302 | 1.0 | 1.0 | 0.00 | 0.00 | 0.00 | 58 | 1019.5 |
| 20260902174113 | 92 | 26 | 1.0 | 2.0 | 0.00 | 0.00 | 0.00 | 58 | 1019.6 |
| 20260902173608 | 92 | 139 | 0.0 | 0.0 | 0.00 | 0.00 | 0.00 | 59 | 1019.7 |
| 20260902173103 | 92 | 187 | 1.0 | 1.0 | 0.00 | 0.00 | 0.00 | 61 | 1019.7 |
| 20260902172603 | 93 | 115 | 2.0 | 2.0 | 0.00 | 0.00 | 0.00 | 61 | 1019.8 |
| 20260902172057 | 92 | 40 | 1.0 | 2.0 | 0.00 | 0.00 | 0.00 | 61 | 1019.9 |
| 20260902171553 | 94 | 125 | 0.0 | 1.0 | 0.00 | 0.00 | 0.00 | 58 | 1020.1 |
| 20260902171049 | 94 | 86 | 0.0 | 1.0 | 0.00 | 0.00 | 0.00 | 58 | 1020.1 |
| 20260902170544 | 93 | 129 | 0.0 | 0.0 | 0.00 | 0.00 | 0.00 | 58 | 1020.0 |
| 20260902170040 | 93 | 127 | 2.0 | 2.0 | 0.00 | 0.00 | 0.00 | 61 | 1020.1 |
| 20260902165539 | 92 | 106 | 1.0 | 1.0 | 0.00 | 0.00 | 0.00 | 63 | 1020.2 |
| 20260902165039 | 91 | 168 | 1.0 | 1.0 | 0.00 | 0.00 | 0.00 | 66 | 1020.0 |
| 20260902164535 | 92 | 93 | 1.0 | 1.0 | 0.00 | 0.00 | 0.00 | 65 | 1020.2 |
| 20260902164033 | 92 | 314 | 1.0 | 1.0 | 0.00 | 0.00 | 0.00 | 63 | 1020.2 |
| 20260902163529 | 92 | 93 | 0.0 | 0.0 | 0.00 | 0.00 | 0.00 | 64 | 1020.4 |
| 20260902163028 | 91 | 1 | 2.0 | 2.0 | 0.00 | 0.00 | 0.00 | 66 | 1020.4 |
| 20260902162527 | 90 | 19 | 3.0 | 3.0 | 0.00 | 0.00 | 0.00 | 68 | 1020.5 |
| 20260902162023 | 90 | 110 | 1.0 | 1.0 | 0.00 | 0.00 | 0.00 | 68 | 1020.6 |
| 20260902161517 | 90 | 69 | 1.0 | 1.0 | 0.00 | 0.00 | 0.00 | 67 | 1020.5 |
| 20260902161013 | 90 | 81 | 2.0 | 2.0 | 0.00 | 0.00 | 0.00 | 67 | 1020.7 |
| 20260902160509 | 89 | 144 | 0.0 | 1.0 | 0.00 | 0.00 | 0.00 | 69 | 1020.7 |
| 20260902160010 | 89 | 83 | 1.0 | 1.0 | 0.00 | 0.00 | 0.00 | 68 | 1020.7 |
| 20260902155502 | 89 | 147 | 1.0 | 1.0 | 0.00 | 0.00 | 0.00 | 69 | 1020.8 |
| 20260902155001 | 90 | 15 | 1.0 | 2.0 | 0.00 | 0.00 | 0.00 | 67 | 1020.7 |
| 20260902154456 | 91 | 36 | 1.0 | 1.0 | 0.00 | 0.00 | 0.00 | 66 | 1021.0 |
| 20260902153951 | 90 | 14 | 0.0 | 0.0 | 0.00 | 0.00 | 0.00 | 65 | 1020.9 |
| 20260902153449 | 90 | 92 | 0.0 | 1.0 | 0.00 | 0.00 | 0.00 | 66 | 1020.9 |
| 20260902152945 | 90 | 134 | 0.0 | 1.0 | 0.00 | 0.00 | 0.00 | 68 | 1020.8 |
| 20260902152441 | 89 | 98 | 0.0 | 0.0 | 0.00 | 0.00 | 0.00 | 69 | 1021.1 |
| 20260902151937 | 87 | 151 | 0.0 | 1.0 | 0.00 | 0.00 | 0.00 | 71 | 1020.8 |
| 20260902151433 | 87 | 78 | 1.0 | 1.0 | 0.00 | 0.00 | 0.00 | 72 | 1020.9 |
| 20260902150932 | 87 | 126 | 1.0 | 1.0 | 0.00 | 0.00 | 0.00 | 70 | 1020.9 |
| 20260902150429 | 88 | 118 | 0.0 | 0.0 | 0.00 | 0.00 | 0.00 | 71 | 1020.9 |
| 20260902145928 | 87 | 72 | 0.0 | 1.0 | 0.00 | 0.00 | 0.00 | 72 | 1020.9 |
| 20260902145424 | 86 | 88 | 1.0 | 1.0 | 0.00 | 0.00 | 0.00 | 73 | 1021.0 |
| 20260902144918 | 87 | 37 | 1.0 | 2.0 | 0.00 | 0.00 | 0.00 | 71 | 1020.8 |
| 20260902144414 | 86 | 69 | 0.0 | 0.0 | 0.00 | 0.00 | 0.00 | 73 | 1020.9 |
| 20260902143914 | 85 | 129 | 2.0 | 3.0 | 0.00 | 0.00 | 0.00 | 74 | 1021.0 |
| 20260902143409 | 86 | 150 | 3.0 | 3.0 | 0.00 | 0.00 | 0.00 | 72 | 1020.8 |
| 20260902142904 | 84 | 105 | 0.0 | 0.0 | 0.00 | 0.00 | 0.00 | 75 | 1020.9 |
| 20260902142401 | 84 | 131 | 1.0 | 1.0 | 0.00 | 0.00 | 0.00 | 77 | 1021.0 |
| 20260902141856 | 85 | 130 | 1.0 | 1.0 | 0.00 | 0.00 | 0.00 | 74 | 1020.9 |
| 20260902141351 | 84 | 83 | 1.0 | 1.0 | 0.00 | 0.00 | 0.00 | 76 | 1020.8 |
| 20260902140850 | 83 | 88 | 0.0 | 0.0 | 0.00 | 0.00 | 0.00 | 79 | 1020.9 |
| 20260902140346 | 83 | 24 | 1.0 | 2.0 | 0.00 | 0.00 | 0.00 | 80 | 1020.7 |
| 20260902135846 | 81 | 94 | 0.0 | 0.0 | 0.00 | 0.00 | 0.00 | 83 | 1020.8 |
| 20260902135342 | 80 | 47 | 0.0 | 0.0 | 0.00 | 0.00 | 0.00 | 85 | 1020.8 |
| 20260902134840 | 80 | 192 | 0.0 | 1.0 | 0.00 | 0.00 | 0.00 | 86 | 1020.8 |
| 20260902134336 | 79 | 272 | 0.0 | 0.0 | 0.00 | 0.00 | 0.00 | 86 | 1020.9 |
| 20260902133831 | 79 | 34 | 3.0 | 3.0 | 0.00 | 0.00 | 0.00 | 87 | 1020.8 |
| 20260902133331 | 79 | 77 | 0.0 | 0.0 | 0.00 | 0.00 | 0.00 | 88 | 1021.0 |
| 20260902132826 | 78 | 113 | 0.0 | 0.0 | 0.00 | 0.00 | 0.00 | 88 | 1021.0 |
| 20260902132321 | 78 | 117 | 1.0 | 1.0 | 0.00 | 0.00 | 0.00 | 89 | 1021.0 |
| 20260902131817 | 78 | 52 | 1.0 | 1.0 | 0.00 | 0.00 | 0.00 | 90 | 1021.1 |
| 20260902131314 | 77 | 103 | 0.0 | 0.0 | 0.00 | 0.00 | 0.00 | 90 | 1021.1 |
| 20260902130813 | 77 | 96 | 0.0 | 0.0 | 0.00 | 0.00 | 0.00 | 91 | 1021.2 |
| 20260902130309 | 76 | 66 | 0.0 | 0.0 | 0.00 | 0.00 | 0.00 | 94 | 1021.3 |
| 20260902125804 | 75 | 72 | 0.0 | 0.0 | 0.00 | 0.00 | 0.00 | 96 | 1021.1 |
| 20260902125300 | 75 | 85 | 0.0 | 0.0 | 0.00 | 0.00 | 0.00 | 97 | 1021.2 |
| 20260902124756 | 74 | 85 | 0.0 | 0.0 | 0.00 | 0.00 | 0.00 | 97 | 1021.0 |
| 20260902124252 | 74 | 92 | 0.0 | 1.0 | 0.00 | 0.00 | 0.00 | 98 | 1021.2 |
| 20260902123752 | 73 | 90 | 0.0 | 0.0 | 0.00 | 0.00 | 0.00 | 99 | 1021.3 |